When you browse on this site, cookies collect data to enhance your experience and personalize the content and advertising you see.
Visit our Privacy Policy to learn more. By continuing to use the site, you agree to this use of cookies and data.
  • In Hungary
  • List of Countries
  • For 7 days
  • Water Temperature
  • Weather Map
  • News
  • Weather Widgets
  • user-avatar
    Login

    Hourly Weather Starobeshevo

    Today, 13 November, Wednesday

    Time Temperature Precipitation Wind Pressure Humidity
    00:00 +10°C° 0 mm 3 mps 759 mmHg 80%
    01:00 +9°C° 0 mm 3 mps 760 mmHg 82%
    02:00 +9°C° 0 mm 3 mps 760 mmHg 84%
    03:00 +9°C° 0 mm 3 mps 760 mmHg 86%
    04:00 +8°C° 0 mm 3 mps 760 mmHg 86%
    05:00 +8°C° 0 mm 3 mps 760 mmHg 87%
    06:00 +7°C° 0 mm 4 mps 759 mmHg 87%
    07:00 +7°C° 0 mm 4 mps 760 mmHg 83%
    08:00 +8°C° 0 mm 5 mps 760 mmHg 80%
    09:00 +8°C° 0 mm 6 mps 760 mmHg 76%
    10:00 +10°C° 0 mm 6 mps 760 mmHg 70%
    11:00 +11°C° 0 mm 6 mps 760 mmHg 64%
    12:00 +13°C° 0 mm 6 mps 760 mmHg 57%
    13:00 +14°C° 0 mm 6 mps 759 mmHg 56%
    14:00 +14°C° 0 mm 6 mps 759 mmHg 54%
    15:00 +14°C° 0 mm 6 mps 759 mmHg 53%
    16:00 +13°C° 0 mm 6 mps 759 mmHg 57%
    17:00 +12°C° 0 mm 5 mps 759 mmHg 61%
    18:00 +10°C° 0 mm 5 mps 759 mmHg 65%
    19:00 +9°C° 0 mm 5 mps 759 mmHg 68%
    20:00 +9°C° 0 mm 6 mps 759 mmHg 71%
    21:00 +8°C° 0 mm 6 mps 759 mmHg 73%
    22:00 +8°C° 0 mm 6 mps 759 mmHg 75%
    23:00 +7°C° 0 mm 6 mps 759 mmHg 77%

    Tomorrow, 14 November, Thursday

    Time Temperature Precipitation Wind Pressure Humidity
    00:00 +7°C° 0 mm 6 mps 759 mmHg 78%
    01:00 +5°C° 0 mm 6 mps 759 mmHg 77%
    02:00 +5°C° 0 mm 7 mps 759 mmHg 75%
    03:00 +4°C° 0 mm 7 mps 759 mmHg 73%
    04:00 +4°C° 0 mm 7 mps 759 mmHg 73%
    05:00 +4°C° 0 mm 7 mps 759 mmHg 72%
    06:00 +3°C° 0 mm 7 mps 759 mmHg 71%
    07:00 +3°C° 0 mm 7 mps 759 mmHg 71%
    08:00 +3°C° 0 mm 7 mps 759 mmHg 70%
    09:00 +4°C° 0 mm 8 mps 759 mmHg 69%
    10:00 +5°C° 0 mm 8 mps 759 mmHg 62%
    11:00 +6°C° 0 mm 8 mps 759 mmHg 56%
    12:00 +7°C° 0 mm 9 mps 759 mmHg 49%
    13:00 +8°C° 0 mm 9 mps 758 mmHg 47%
    14:00 +8°C° 0 mm 9 mps 758 mmHg 45%
    15:00 +8°C° 0 mm 9 mps 758 mmHg 43%
    16:00 +8°C° 0 mm 9 mps 758 mmHg 46%
    17:00 +7°C° 0 mm 8 mps 758 mmHg 49%
    18:00 +6°C° 0 mm 8 mps 758 mmHg 52%
    19:00 +5°C° 0 mm 8 mps 758 mmHg 53%
    20:00 +5°C° 0 mm 8 mps 758 mmHg 54%
    21:00 +5°C° 0 mm 9 mps 759 mmHg 56%
    22:00 +3°C° 0 mm 9 mps 759 mmHg 57%
    23:00 +3°C° 0 mm 9 mps 759 mmHg 58%

    Day after tomorrow, 15 November, Friday

    Time Temperature Precipitation Wind Pressure Humidity
    00:00 +3°C° 0 mm 9 mps 759 mmHg 59%
    01:00 +2°C° 0 mm 9 mps 759 mmHg 60%
    02:00 +2°C° 0 mm 9 mps 759 mmHg 61%
    03:00 +2°C° 0 mm 8 mps 759 mmHg 63%
    04:00 +2°C° 0 mm 9 mps 759 mmHg 66%
    05:00 +2°C° 0 mm 9 mps 758 mmHg 69%
    06:00 +2°C° 0 mm 9 mps 758 mmHg 72%
    07:00 +2°C° 0 mm 9 mps 759 mmHg 71%
    08:00 +2°C° 0 mm 9 mps 759 mmHg 70%
    09:00 +2°C° 0 mm 10 mps 759 mmHg 69%
    10:00 +5°C° 0 mm 9 mps 759 mmHg 64%
    11:00 +6°C° 0 mm 10 mps 759 mmHg 59%
    12:00 +7°C° 0 mm 10 mps 759 mmHg 54%
    13:00 +7°C° 0 mm 10 mps 759 mmHg 52%
    14:00 +8°C° 0 mm 9 mps 759 mmHg 50%
    15:00 +8°C° 0 mm 9 mps 759 mmHg 49%
    16:00 +8°C° 0 mm 9 mps 759 mmHg 50%
    17:00 +7°C° 0 mm 8 mps 759 mmHg 52%
    18:00 +6°C° 0 mm 8 mps 759 mmHg 54%
    19:00 +6°C° 0 mm 8 mps 760 mmHg 56%
    20:00 +5°C° 0 mm 8 mps 760 mmHg 58%
    21:00 +5°C° 0 mm 8 mps 760 mmHg 61%
    22:00 +4°C° 0 mm 8 mps 760 mmHg 63%
    23:00 +4°C° 0 mm 8 mps 760 mmHg 66%

    16 November, Saturday

    Time Temperature Precipitation Wind Pressure Humidity
    00:00 +2°C° 0 mm 8 mps 760 mmHg 68%
    01:00 +2°C° 0 mm 8 mps 760 mmHg 70%
    02:00 +1°C° 0 mm 8 mps 761 mmHg 72%
    03:00 +1°C° 0 mm 8 mps 761 mmHg 74%
    04:00 +1°C° 0 mm 8 mps 761 mmHg 75%
    05:00 0°C° 0 mm 8 mps 761 mmHg 77%
    06:00 0°C° 0 mm 8 mps 761 mmHg 78%
    07:00 0°C° 0 mm 8 mps 761 mmHg 78%
    08:00 0°C° 0 mm 8 mps 761 mmHg 79%
    09:00 0°C° 0 mm 8 mps 761 mmHg 79%
    10:00 +2°C° 0 mm 8 mps 762 mmHg 72%
    11:00 +4°C° 0 mm 8 mps 762 mmHg 65%
    12:00 +6°C° 0 mm 8 mps 762 mmHg 58%
    13:00 +6°C° 0 mm 8 mps 762 mmHg 56%
    14:00 +7°C° 0 mm 8 mps 762 mmHg 53%
    15:00 +7°C° 0 mm 8 mps 761 mmHg 50%
    16:00 +8°C° 0 mm 7 mps 762 mmHg 53%
    17:00 +6°C° 0 mm 7 mps 762 mmHg 55%
    18:00 +5°C° 0 mm 6 mps 762 mmHg 58%
    19:00 +4°C° 0 mm 7 mps 762 mmHg 60%
    20:00 +4°C° 0 mm 7 mps 762 mmHg 62%
    21:00 +3°C° 0 mm 7 mps 762 mmHg 64%
    22:00 +3°C° 0 mm 7 mps 762 mmHg 67%
    23:00 +3°C° 0 mm 6 mps 762 mmHg 71%

    17 November, Sunday

    Time Temperature Precipitation Wind Pressure Humidity
    00:00 +2°C° 0 mm 6 mps 762 mmHg 74%
    01:00 +2°C° 0 mm 6 mps 762 mmHg 77%
    02:00 +1°C° 0 mm 6 mps 762 mmHg 80%
    03:00 +1°C° 0 mm 6 mps 763 mmHg 83%
    04:00 +1°C° 0 mm 6 mps 763 mmHg 85%
    05:00 +1°C° 0 mm 6 mps 763 mmHg 88%
    06:00 -1°C° 0 mm 6 mps 763 mmHg 90%
    07:00 +1°C° 0 mm 6 mps 763 mmHg 88%
    08:00 +1°C° 0 mm 6 mps 763 mmHg 85%
    09:00 +2°C° 0 mm 6 mps 763 mmHg 83%
    10:00 +3°C° 0 mm 6 mps 763 mmHg 78%
    11:00 +4°C° 0 mm 6 mps 763 mmHg 73%
    12:00 +5°C° 0 mm 6 mps 763 mmHg 68%
    13:00 +7°C° 0 mm 6 mps 763 mmHg 64%
    14:00 +8°C° 0 mm 6 mps 763 mmHg 61%
    15:00 +9°C° 0 mm 6 mps 763 mmHg 57%
    16:00 +8°C° 0 mm 6 mps 763 mmHg 62%
    17:00 +7°C° 0 mm 5 mps 763 mmHg 66%
    18:00 +6°C° 0 mm 5 mps 763 mmHg 70%
    19:00 +6°C° 0 mm 5 mps 763 mmHg 71%
    20:00 +5°C° 0 mm 5 mps 763 mmHg 72%
    21:00 +5°C° 0 mm 5 mps 763 mmHg 74%
    22:00 +5°C° 0 mm 5 mps 763 mmHg 74%
    23:00 +3°C° 0 mm 5 mps 763 mmHg 74%

    18 November, Monday

    Time Temperature Precipitation Wind Pressure Humidity
    00:00 +3°C° 0 mm 5 mps 763 mmHg 74%
    01:00 +3°C° 0 mm 5 mps 762 mmHg 73%
    02:00 +2°C° 0 mm 5 mps 762 mmHg 73%
    03:00 +2°C° 0 mm 5 mps 762 mmHg 72%
    04:00 +2°C° 0 mm 5 mps 762 mmHg 72%
    05:00 +2°C° 0 mm 5 mps 762 mmHg 71%
    06:00 +1°C° 0 mm 5 mps 761 mmHg 70%
    07:00 +2°C° 0 mm 5 mps 761 mmHg 67%
    08:00 +2°C° 0 mm 5 mps 761 mmHg 64%
    09:00 +2°C° 0 mm 6 mps 761 mmHg 61%
    10:00 +4°C° 0 mm 6 mps 761 mmHg 52%
    11:00 +7°C° 0 mm 6 mps 761 mmHg 43%
    12:00 +8°C° 0 mm 6 mps 761 mmHg 34%
    13:00 +9°C° 0 mm 6 mps 761 mmHg 30%
    14:00 +9°C° 0 mm 6 mps 760 mmHg 27%
    15:00 +10°C° 0 mm 6 mps 760 mmHg 24%
    16:00 +9°C° 0 mm 6 mps 760 mmHg 29%
    17:00 +8°C° 0 mm 5 mps 760 mmHg 35%
    18:00 +6°C° 0 mm 5 mps 760 mmHg 40%
    19:00 +6°C° 0 mm 5 mps 760 mmHg 43%
    20:00 +5°C° 0 mm 5 mps 760 mmHg 46%
    21:00 +5°C° 0 mm 5 mps 760 mmHg 49%
    22:00 +3°C° 0 mm 5 mps 759 mmHg 49%
    23:00 +3°C° 0 mm 5 mps 759 mmHg 50%
    Show more